IW8RUI-5 Weather Reports


Display with metric or nautical units.
time (UTC)temp
F
wind
direction
speed
MPH
gust
MPH
rain 1hr
in
rain 24hr
in
rain mn
in
humidity
%
barometer
mb
20260904080426 68 156 0.0 0.0 0.00 0.00 0.00 10 1013.0
20260904075926 67 169 0.0 0.0 0.00 0.00 0.00 10 1013.0
20260904075426 67 151 0.0 0.0 0.00 0.00 0.00 10 1013.0
20260904074926 66 149 0.0 0.0 0.00 0.00 0.00 10 1013.0
20260904074430 66 143 0.0 0.0 0.00 0.00 0.00 10 1013.0
20260904073930 66 167 0.0 0.0 0.00 0.00 0.00 10 1013.0
20260904073426 66 169 0.0 0.0 0.00 0.00 0.00 10 1013.0
20260904072930 65 149 0.0 0.0 0.00 0.00 0.00 10 1013.0
20260904072430 65 143 0.0 0.0 0.00 0.00 0.00 10 1013.0
20260904071934 65 169 0.0 0.0 0.00 0.00 0.00 10 1013.0
20260904071430 64 144 0.0 0.0 0.00 0.00 0.00 24 1013.0
20260904070926 64 163 0.0 0.0 0.00 0.00 0.00 27 1013.0
20260904065926 64 154 0.0 0.0 0.00 0.00 0.00 37 1013.0
20260904065431 63 148 0.0 0.0 0.00 0.00 0.00 39 1013.0
20260904064930 63 159 0.0 0.0 0.00 0.00 0.00 41 1013.0
20260904064430 63 152 0.0 0.0 0.00 0.00 0.00 41 1013.0
20260904063926 63 145 0.0 0.0 0.00 0.00 0.00 42 1013.0
20260904063426 63 143 0.0 0.0 0.00 0.00 0.00 42 1013.0
20260904062930 63 167 0.0 0.0 0.00 0.00 0.00 43 1013.0
20260904062430 63 157 0.0 0.0 0.00 0.00 0.00 41 1013.0
20260904061930 63 158 0.0 0.0 0.00 0.00 0.00 41 1013.0
20260904061430 63 164 0.0 0.0 0.00 0.00 0.00 41 1013.0
20260904060930 63 169 0.0 0.0 0.00 0.00 0.00 39 1013.0
20260904060430 62 143 0.0 0.0 0.00 0.00 0.00 39 1013.0
20260904055930 62 169 0.0 0.0 0.00 0.00 0.00 39 1013.0
20260904055429 62 146 0.0 0.0 0.00 0.00 0.00 39 1013.0
20260904054929 62 156 0.0 0.0 0.00 0.00 0.00 39 1013.0
20260904054430 62 154 0.0 0.0 0.00 0.00 0.00 39 1013.0
20260904053928 62 168 0.0 0.0 0.00 0.00 0.00 39 1013.0
20260904053428 62 160 0.0 0.0 0.00 0.00 0.00 39 1013.0
20260904052429 62 169 0.0 0.0 0.00 0.00 0.00 39 1012.0
20260904051928 62 156 0.0 0.0 0.00 0.00 0.00 39 1012.0
20260904051428 62 164 0.0 0.0 0.00 0.00 0.00 39 1012.0
20260904050928 62 143 0.0 0.0 0.00 0.00 0.00 39 1012.0
20260904050428 62 142 0.0 0.0 0.00 0.00 0.00 40 1012.0
20260904045928 62 169 0.0 0.0 0.00 0.00 0.00 40 1012.0
20260904045428 62 167 0.0 0.0 0.00 0.00 0.00 39 1012.0
20260904044928 61 169 0.0 0.0 0.00 0.00 0.00 37 1012.0
20260904044428 61 155 0.0 0.0 0.00 0.00 0.00 35 1012.0
20260904043928 61 144 0.0 0.0 0.00 0.00 0.00 36 1012.0
20260904043428 61 144 0.0 0.0 0.00 0.00 0.00 36 1012.0
20260904042928 61 169 0.0 0.0 0.00 0.00 0.00 36 1012.0
20260904042428 61 160 0.0 0.0 0.00 0.00 0.00 36 1012.0
20260904041928 62 164 0.0 0.0 0.00 0.00 0.00 36 1012.0
20260904041428 62 158 0.0 0.0 0.00 0.00 0.00 36 1012.0
20260904040928 62 157 0.0 0.0 0.00 0.00 0.00 35 1012.0
20260904040428 62 169 0.0 0.0 0.00 0.00 0.00 35 1012.0
20260904035928 62 154 0.0 0.0 0.00 0.00 0.00 35 1012.0
20260904035428 62 143 0.0 0.0 0.00 0.00 0.00 35 1012.0
20260904034428 61 164 0.0 0.0 0.00 0.00 0.00 34 1012.0
20260904033928 61 169 0.0 0.0 0.00 0.00 0.00 34 1012.0
20260904033428 61 168 0.0 0.0 0.00 0.00 0.00 34 1012.0
20260904032929 61 148 0.0 0.0 0.00 0.00 0.00 28 1012.0
20260904032428 61 155 0.0 0.0 0.00 0.00 0.00 25 1012.0
20260904031929 61 163 0.0 0.0 0.00 0.00 0.00 24 1012.0
20260904031428 61 164 0.0 0.0 0.00 0.00 0.00 24 1012.0
20260904030928 61 142 0.0 0.0 0.00 0.00 0.00 24 1012.0
20260904030428 61 169 0.0 0.0 0.00 0.00 0.00 25 1012.0
20260904025928 61 160 0.0 0.0 0.00 0.00 0.00 28 1012.0
20260904025428 60 159 0.0 0.0 0.00 0.00 0.00 10 1012.0
20260904024928 60 143 0.0 0.0 0.00 0.00 0.00 10 1012.0
20260904024428 60 167 0.0 0.0 0.00 0.00 0.00 10 1012.0
20260904023928 60 149 0.0 0.0 0.00 0.00 0.00 10 1012.0
20260904023429 60 161 0.0 0.0 0.00 0.00 0.00 10 1012.0
20260904022928 60 158 0.0 0.0 0.00 0.00 0.00 10 1012.0
20260904022429 60 161 0.0 0.0 0.00 0.00 0.00 10 1012.0
20260904021928 60 169 0.0 0.0 0.00 0.00 0.00 10 1012.0
20260904021428 60 157 0.0 0.0 0.00 0.00 0.00 10 1012.0
20260904020929 60 143 0.0 0.0 0.00 0.00 0.00 10 1012.0
20260904020428 60 142 0.0 0.0 0.00 0.00 0.00 10 1012.0
20260904015928 60 161 0.0 0.0 0.00 0.00 0.00 10 1012.0
20260904015428 60 169 0.0 0.0 0.00 0.00 0.00 10 1012.0
20260904014928 60 158 0.0 0.0 0.00 0.00 0.00 10 1012.0
20260904014428 60 151 0.0 0.0 0.00 0.00 0.00 10 1012.0
20260904013928 60 143 0.0 0.0 0.00 0.00 0.00 10 1012.0
20260904013428 60 169 0.0 0.0 0.00 0.00 0.00 10 1012.0
20260904012929 61 167 0.0 0.0 0.00 0.00 0.00 10 1012.0
20260904012428 61 161 0.0 0.0 0.00 0.00 0.00 10 1012.0
20260904011428 61 165 0.0 0.0 0.00 0.00 0.00 10 1012.0
20260904010928 61 156 0.0 0.0 0.00 0.00 0.00 10 1012.0
20260904010428 61 161 0.0 0.0 0.00 0.00 0.00 10 1012.0
20260904005928 61 143 0.0 0.0 0.00 0.00 0.00 10 1012.0
20260904005429 61 146 0.0 0.0 0.00 0.00 0.00 10 1012.0
20260904004929 61 170 0.0 0.0 0.00 0.00 0.00 10 1012.0
20260904004428 62 167 0.0 0.0 0.00 0.00 0.00 10 1012.0
20260904003929 62 153 0.0 0.0 0.00 0.00 0.00 10 1012.0
20260904003429 62 169 0.0 0.0 0.00 0.00 0.00 10 1012.0
20260904002926 62 169 0.0 0.0 0.00 0.00 0.00 10 1012.0
20260904002426 62 154 0.0 0.0 0.00 0.00 0.00 10 1012.0
20260904001928 62 142 0.0 0.0 0.00 0.00 0.00 10 1012.0
20260904001428 62 165 0.0 0.0 0.00 0.00 0.00 10 1012.0
20260904000928 62 148 0.0 0.0 0.00 0.00 0.00 10 1012.0
20260904000426 62 148 0.0 0.0 0.00 0.00 0.00 10 1012.0
20260903235928 62 168 0.0 0.0 0.00 0.00 0.00 10 1012.0
20260903235426 63 149 0.0 0.0 0.00 0.00 0.00 10 1012.0
20260903234926 63 143 0.0 0.0 0.00 0.00 0.00 10 1012.0
20260903234426 63 162 0.0 0.0 0.00 0.00 0.00 10 1012.0
20260903233926 63 143 0.0 0.0 0.00 0.00 0.00 10 1013.0
20260903233426 63 142 0.0 0.0 0.00 0.00 0.00 10 1013.0
20260903232926 63 158 0.0 0.0 0.00 0.00 0.00 10 1013.0
20260903232426 63 143 0.0 0.0 0.00 0.00 0.00 10 1013.0
20260903231926 63 143 0.0 0.0 0.00 0.00 0.00 10 1013.0
20260903231428 63 160 0.0 0.0 0.00 0.00 0.00 10 1013.0
20260903230926 63 161 0.0 0.0 0.00 0.00 0.00 10 1013.0
20260903230429 63 161 0.0 0.0 0.00 0.00 0.00 10 1013.0
20260903225926 63 144 0.0 0.0 0.00 0.00 0.00 10 1013.0
20260903225426 64 146 0.0 0.0 0.00 0.00 0.00 10 1012.0
20260903224926 64 143 0.0 0.0 0.00 0.00 0.00 10 1012.0
20260903224426 63 169 0.0 0.0 0.00 0.00 0.00 10 1012.0
20260903223926 63 153 0.0 0.0 0.00 0.00 0.00 10 1013.0
20260903223428 63 150 0.0 0.0 0.00 0.00 0.00 10 1013.0
20260903222926 63 155 0.0 0.0 0.00 0.00 0.00 10 1013.0
20260903222426 63 151 0.0 0.0 0.00 0.00 0.00 10 1013.0
20260903221926 63 143 0.0 0.0 0.00 0.00 0.00 10 1013.0
20260903221426 62 155 0.0 0.0 0.00 0.00 0.00 10 1013.0
20260903220926 62 146 0.0 0.0 0.00 0.00 0.00 10 1013.0
20260903220426 62 154 0.0 0.0 0.00 0.00 0.00 10 1013.0
20260903215926 62 146 0.0 0.0 0.00 0.00 0.00 10 1013.0
20260903215427 62 168 0.0 0.0 0.00 0.00 0.00 10 1013.0
20260903214926 62 169 0.0 0.0 0.00 0.00 0.00 10 1013.0
20260903214426 62 160 0.0 0.0 0.00 0.00 0.00 10 1013.0
20260903213927 62 151 0.0 0.0 0.00 0.00 0.00 10 1013.0
20260903213426 62 160 0.0 0.0 0.00 0.00 0.00 10 1013.0
20260903212429 62 150 0.0 0.0 0.00 0.00 0.00 10 1013.0
20260903211928 63 168 0.0 0.0 0.00 0.00 0.00 10 1013.0
20260903211428 63 146 0.0 0.0 0.00 0.00 0.00 10 1013.0
20260903210928 63 142 0.0 0.0 0.00 0.00 0.00 10 1012.0
20260903205926 63 169 0.0 0.0 0.00 0.00 0.00 10 1012.0
20260903205426 63 170 0.0 0.0 0.00 0.00 0.00 10 1013.0
20260903204927 63 168 0.0 0.0 0.00 0.00 0.00 10 1013.0
20260903204428 63 149 0.0 0.0 0.00 0.00 0.00 10 1013.0
20260903203927 63 158 0.0 0.0 0.00 0.00 0.00 10 1013.0
20260903203427 63 147 0.0 0.0 0.00 0.00 0.00 10 1013.0
20260903202928 63 168 0.0 0.0 0.00 0.00 0.00 10 1013.0
20260903202429 63 152 0.0 0.0 0.00 0.00 0.00 10 1013.0
20260903201927 62 160 0.0 0.0 0.00 0.00 0.00 10 1013.0
20260903201427 62 142 0.0 0.0 0.00 0.00 0.00 10 1013.0
20260903200927 62 152 0.0 0.0 0.00 0.00 0.00 10 1013.0
20260903200427 62 142 0.0 0.0 0.00 0.00 0.00 10 1013.0
20260903195927 62 142 0.0 0.0 0.00 0.00 0.00 10 1013.0
20260903195427 61 168 0.0 0.0 0.00 0.00 0.00 10 1013.0
20260903195002 61 168 0.0 0.0 0.00 0.00 0.00 10 1013.0
20260903194927 61 168 0.0 0.0 0.00 0.00 0.00 10 1013.0
20260903194427 61 143 0.0 0.0 0.00 0.00 0.00 10 1013.0
20260903193927 62 167 0.0 0.0 0.00 0.00 0.00 10 1013.0
20260903193428 62 166 0.0 0.0 0.00 0.00 0.00 10 1013.0
20260903192928 62 146 0.0 0.0 0.00 0.00 0.00 10 1013.0
20260903192426 62 157 0.0 0.0 0.00 0.00 0.00 10 1013.0
20260903191927 62 146 0.0 0.0 0.00 0.00 0.00 10 1013.0
20260903190926 62 169 0.0 0.0 0.00 0.00 0.00 10 1012.0
20260903190427 62 169 0.0 0.0 0.00 0.00 0.00 10 1012.0
20260903185927 62 164 0.0 0.0 0.00 0.00 0.00 10 1012.0
20260903185428 62 159 0.0 0.0 0.00 0.00 0.00 10 1012.0
20260903184928 63 162 0.0 0.0 0.00 0.00 0.00 10 1012.0
20260903184427 63 164 0.0 0.0 0.00 0.00 0.00 10 1012.0
20260903183926 63 146 0.0 0.0 0.00 0.00 0.00 10 1012.0
20260903183427 63 169 0.0 0.0 0.00 0.00 0.00 10 1012.0
20260903182926 63 147 0.0 0.0 0.00 0.00 0.00 10 1012.0
20260903182427 63 147 0.0 0.0 0.00 0.00 0.00 10 1012.0
20260903181926 63 142 0.0 0.0 0.00 0.00 0.00 10 1012.0
20260903181426 64 156 0.0 0.0 0.00 0.00 0.00 10 1012.0
20260903180927 64 143 0.0 0.0 0.00 0.00 0.00 10 1012.0
20260903175926 64 167 0.0 0.0 0.00 0.00 0.00 10 1012.0
20260903175426 64 166 0.0 0.0 0.00 0.00 0.00 10 1012.0
20260903174926 65 168 0.0 0.0 0.00 0.00 0.00 10 1012.0
20260903174426 65 156 0.0 0.0 0.00 0.00 0.00 10 1012.0
20260903173927 65 168 0.0 0.0 0.00 0.00 0.00 10 1012.0
20260903173502 66 166 0.0 0.0 0.00 0.00 0.00 10 1012.0
20260903173426 66 166 0.0 0.0 0.00 0.00 0.00 10 1012.0
20260903172926 66 167 0.0 0.0 0.00 0.00 0.00 10 1012.0
20260903172426 67 142 0.0 0.0 0.00 0.00 0.00 10 1012.0
20260903171927 68 143 0.0 0.0 0.00 0.00 0.00 10 1012.0
20260903171426 69 156 0.0 0.0 0.00 0.00 0.00 10 1012.0
20260903170927 70 144 0.0 0.0 0.00 0.00 0.00 10 1012.0
20260903170426 71 160 0.0 0.0 0.00 0.00 0.00 10 1012.0
20260903165926 72 162 0.0 0.0 0.00 0.00 0.00 10 1012.0
20260903165426 73 145 0.0 0.0 0.00 0.00 0.00 10 1011.0
20260903164926 73 144 0.0 0.0 0.00 0.00 0.00 10 1011.0
20260903164426 74 168 0.0 0.0 0.00 0.00 0.00 10 1011.0
20260903163928 73 154 0.0 0.0 0.00 0.00 0.00 10 1011.0
20260903163427 72 148 0.0 0.0 0.00 0.00 0.00 10 1011.0
20260903162927 73 145 0.0 0.0 0.00 0.00 0.00 10 1011.0
20260903162427 74 149 0.0 0.0 0.00 0.00 0.00 10 1012.0
20260903161926 75 159 0.0 0.0 0.00 0.00 0.00 10 1012.0
20260903161426 75 145 0.0 0.0 0.00 0.00 0.00 10 1012.0
20260903160926 75 141 0.0 0.0 0.00 0.00 0.00 10 1012.0
20260903160426 75 169 0.0 0.0 0.00 0.00 0.00 10 1012.0
20260903155926 75 145 0.0 0.0 0.00 0.00 0.00 10 1012.0
20260903155426 75 142 0.0 0.0 0.00 0.00 0.00 10 1012.0
20260903154929 75 166 0.0 0.0 0.00 0.00 0.00 10 1012.0
20260903154426 74 142 0.0 0.0 0.00 0.00 0.00 11 1012.0
20260903153926 74 159 0.0 0.0 0.00 0.00 0.00 13 1012.0
20260903153426 74 167 0.0 0.0 0.00 0.00 0.00 13 1012.0
20260903152926 75 166 0.0 0.0 0.00 0.00 0.00 10 1012.0
20260903152426 75 160 0.0 0.0 0.00 0.00 0.00 10 1012.0
20260903151927 74 170 0.0 0.0 0.00 0.00 0.00 10 1012.0
20260903151426 74 169 0.0 0.0 0.00 0.00 0.00 10 1012.0
20260903150926 73 156 0.0 0.0 0.00 0.00 0.00 10 1012.0
20260903150426 73 145 0.0 0.0 0.00 0.00 0.00 10 1012.0
20260903145929 73 143 0.0 0.0 0.00 0.00 0.00 10 1012.0
20260903145426 73 152 0.0 0.0 0.00 0.00 0.00 10 1012.0
20260903144926 73 167 0.0 0.0 0.00 0.00 0.00 10 1012.0
20260903144426 73 154 0.0 0.0 0.00 0.00 0.00 10 1012.0
20260903143926 73 165 0.0 0.0 0.00 0.00 0.00 10 1012.0
20260903143427 72 168 0.0 0.0 0.00 0.00 0.00 10 1012.0
20260903142927 73 166 0.0 0.0 0.00 0.00 0.00 10 1012.0
20260903142426 72 146 0.0 0.0 0.00 0.00 0.00 10 1012.0
20260903141927 72 152 0.0 0.0 0.00 0.00 0.00 10 1012.0
20260903141427 72 151 0.0 0.0 0.00 0.00 0.00 10 1012.0
20260903140427 73 164 0.0 0.0 0.00 0.00 0.00 10 1012.0
20260903135926 73 150 0.0 0.0 0.00 0.00 0.00 10 1012.0
20260903135426 72 170 0.0 0.0 0.00 0.00 0.00 10 1012.0
20260903134927 72 142 0.0 0.0 0.00 0.00 0.00 10 1012.0
20260903134427 72 168 0.0 0.0 0.00 0.00 0.00 10 1012.0
20260903133927 73 145 0.0 0.0 0.00 0.00 0.00 10 1012.0
20260903133427 74 156 0.0 0.0 0.00 0.00 0.00 10 1012.0
20260903132927 73 162 0.0 0.0 0.00 0.00 0.00 10 1012.0
20260903131926 74 143 0.0 0.0 0.00 0.00 0.00 10 1012.0
20260903130429 73 169 0.0 0.0 0.00 0.00 0.00 10 1012.0
20260903125929 74 156 0.0 0.0 0.00 0.00 0.00 10 1012.0
20260903125426 74 162 0.0 0.0 0.00 0.00 0.00 10 1012.0
20260903124429 73 152 0.0 0.0 0.00 0.00 0.00 10 1012.0
20260903123929 74 142 0.0 0.0 0.00 0.00 0.00 10 1012.0
20260903123429 74 148 0.0 0.0 0.00 0.00 0.00 10 1012.0
20260903122930 74 150 0.0 0.0 0.00 0.00 0.00 10 1012.0
20260903122430 74 143 0.0 0.0 0.00 0.00 0.00 10 1012.0
20260903121926 74 169 0.0 0.0 0.00 0.00 0.00 10 1012.0
20260903121429 74 156 0.0 0.0 0.00 0.00 0.00 10 1012.0
20260903120929 74 158 0.0 0.0 0.00 0.00 0.00 10 1012.0
20260903120429 75 143 0.0 0.0 0.00 0.00 0.00 10 1012.0
20260903115926 75 153 0.0 0.0 0.00 0.00 0.00 10 1012.0
20260903115428 75 165 0.0 0.0 0.00 0.00 0.00 10 1012.0
20260903114928 76 163 0.0 0.0 0.00 0.00 0.00 10 1012.0
20260903114426 76 167 0.0 0.0 0.00 0.00 0.00 10 1012.0
20260903113428 76 163 0.0 0.0 0.00 0.00 0.00 10 1012.0
20260903112429 77 143 0.0 0.0 0.00 0.00 0.00 10 1012.0
20260903111928 77 166 0.0 0.0 0.00 0.00 0.00 10 1012.0
20260903111428 77 155 0.0 0.0 0.00 0.00 0.00 10 1012.0
20260903110928 76 148 0.0 0.0 0.00 0.00 0.00 10 1012.0
20260903110427 76 167 0.0 0.0 0.00 0.00 0.00 10 1012.0
20260903110026 77 162 0.0 0.0 0.00 0.00 0.00 10 1012.0
20260903105926 77 162 0.0 0.0 0.00 0.00 0.00 10 1012.0
20260903105427 77 168 0.0 0.0 0.00 0.00 0.00 10 1012.0
20260903104927 77 143 0.0 0.0 0.00 0.00 0.00 10 1012.0
20260903104427 77 153 0.0 0.0 0.00 0.00 0.00 10 1012.0
20260903103927 76 169 0.0 0.0 0.00 0.00 0.00 10 1012.0
20260903103426 76 155 0.0 0.0 0.00 0.00 0.00 10 1012.0
20260903102926 77 163 0.0 0.0 0.00 0.00 0.00 10 1012.0
20260903102428 77 155 0.0 0.0 0.00 0.00 0.00 13 1012.0
20260903101927 77 156 0.0 0.0 0.00 0.00 0.00 13 1012.0
20260903101425 77 170 0.0 0.0 0.00 0.00 0.00 13 1012.0
20260903100927 76 169 0.0 0.0 0.00 0.00 0.00 13 1012.0
20260903100427 76 154 0.0 0.0 0.00 0.00 0.00 13 1012.0
20260903095927 76 151 0.0 0.0 0.00 0.00 0.00 13 1012.0
20260903095427 75 163 0.0 0.0 0.00 0.00 0.00 13 1013.0
20260903094928 75 144 0.0 0.0 0.00 0.00 0.00 13 1013.0
20260903094427 75 152 0.0 0.0 0.00 0.00 0.00 13 1013.0
20260903093927 75 169 0.0 0.0 0.00 0.00 0.00 13 1013.0
20260903093425 75 144 0.0 0.0 0.00 0.00 0.00 13 1013.0
20260903092927 75 166 0.0 0.0 0.00 0.00 0.00 13 1013.0
20260903092426 74 143 0.0 0.0 0.00 0.00 0.00 13 1013.0
20260903091927 74 169 0.0 0.0 0.00 0.00 0.00 13 1013.0
20260903091425 74 152 0.0 0.0 0.00 0.00 0.00 13 1013.0
20260903090927 74 150 0.0 0.0 0.00 0.00 0.00 13 1013.0
20260903090427 73 160 0.0 0.0 0.00 0.00 0.00 13 1013.0
20260903085925 73 160 0.0 0.0 0.00 0.00 0.00 13 1013.0
20260903085427 73 162 0.0 0.0 0.00 0.00 0.00 13 1013.0
20260903084927 73 143 0.0 0.0 0.00 0.00 0.00 13 1013.0
20260903084425 72 146 0.0 0.0 0.00 0.00 0.00 13 1013.0
20260903083927 72 160 0.0 0.0 0.00 0.00 0.00 14 1013.0
20260903083427 72 143 0.0 0.0 0.00 0.00 0.00 11 1013.0
20260903082927 71 149 0.0 0.0 0.00 0.00 0.00 11 1013.0
20260903081927 70 169 0.0 0.0 0.00 0.00 0.00 10 1012.0
20260903081428 70 168 0.0 0.0 0.00 0.00 0.00 12 1012.0